When you browse on this site, cookies collect data to enhance your experience and personalize the content and advertising you see.
Visit our Privacy Policy to learn more. By continuing to use the site, you agree to this use of cookies and data.
  • In Österreich
  • Länderverzeichnis
  • Für 7 Tage
  • Wassertemperatur
  • Satellitenkarten
  • Wetterkarte
  • News
  • Widgets
  • user-avatar
    Anmelden

    Stündliche Wetter Batina

    Heute, 24 März, Sonntag

    Zeit Temperatur Niederschläge Wind Luftdruck Luftfeuchtigkeit
    00:00 +7°C° 0 mm 1 m/S 673 mmHg 95%
    01:00 +7°C° 0 mm 1 m/S 673 mmHg 95%
    02:00 +6°C° 0 mm 1 m/S 672 mmHg 94%
    03:00 +6°C° 0 mm 1 m/S 672 mmHg 94%
    04:00 +6°C° 0 mm 1 m/S 672 mmHg 93%
    05:00 +6°C° 0 mm 1 m/S 672 mmHg 91%
    06:00 +5°C° 0 mm 0 m/S 672 mmHg 90%
    07:00 +7°C° 0 mm 0 m/S 673 mmHg 80%
    08:00 +9°C° 0 mm 0 m/S 674 mmHg 70%
    09:00 +11°C° 0 mm 0 m/S 674 mmHg 61%
    10:00 +13°C° 0 mm 1 m/S 675 mmHg 57%
    11:00 +14°C° 0 mm 1 m/S 675 mmHg 53%
    12:00 +15°C° 0 mm 1 m/S 675 mmHg 49%
    13:00 +15°C° 0.1 mm 2 m/S 675 mmHg 49%
    14:00 +14°C° 0.1 mm 3 m/S 674 mmHg 50%
    15:00 +14°C° 0.1 mm 3 m/S 674 mmHg 51%
    16:00 +13°C° 0 mm 3 m/S 673 mmHg 53%
    17:00 +12°C° 0 mm 3 m/S 673 mmHg 55%
    18:00 +11°C° 0 mm 3 m/S 673 mmHg 58%
    19:00 +11°C° 0 mm 3 m/S 673 mmHg 59%
    20:00 +10°C° 0 mm 3 m/S 673 mmHg 61%
    21:00 +9°C° 0 mm 2 m/S 673 mmHg 63%
    22:00 +9°C° 0 mm 2 m/S 673 mmHg 64%
    23:00 +9°C° 0 mm 2 m/S 673 mmHg 66%

    Morgen, 25 März, Montag

    Zeit Temperatur Niederschläge Wind Luftdruck Luftfeuchtigkeit
    00:00 +8°C° 0 mm 2 m/S 673 mmHg 67%
    01:00 +8°C° 0 mm 2 m/S 672 mmHg 69%
    02:00 +8°C° 0 mm 3 m/S 672 mmHg 71%
    03:00 +7°C° 0 mm 3 m/S 672 mmHg 72%
    04:00 +7°C° 0 mm 2 m/S 672 mmHg 72%
    05:00 +7°C° 0 mm 2 m/S 671 mmHg 72%
    06:00 +7°C° 0 mm 2 m/S 671 mmHg 72%
    07:00 +9°C° 0 mm 2 m/S 672 mmHg 65%
    08:00 +11°C° 0 mm 3 m/S 673 mmHg 57%
    09:00 +13°C° 0 mm 3 m/S 673 mmHg 50%
    10:00 +13°C° 0 mm 3 m/S 673 mmHg 47%
    11:00 +14°C° 0 mm 4 m/S 673 mmHg 44%
    12:00 +15°C° 0 mm 4 m/S 673 mmHg 42%
    13:00 +15°C° 0 mm 4 m/S 672 mmHg 42%
    14:00 +15°C° 0 mm 4 m/S 672 mmHg 42%
    15:00 +15°C° 0 mm 4 m/S 671 mmHg 42%
    16:00 +14°C° 0 mm 4 m/S 671 mmHg 45%
    17:00 +13°C° 0 mm 3 m/S 670 mmHg 48%
    18:00 +12°C° 0 mm 3 m/S 670 mmHg 51%
    19:00 +13°C° 0 mm 2 m/S 670 mmHg 53%
    20:00 +13°C° 0 mm 2 m/S 671 mmHg 55%
    21:00 +12°C° 0 mm 1 m/S 671 mmHg 56%
    22:00 +12°C° 0 mm 1 m/S 670 mmHg 57%
    23:00 +12°C° 0 mm 1 m/S 670 mmHg 58%

    übermorgen, 26 März, Dienstag

    Zeit Temperatur Niederschläge Wind Luftdruck Luftfeuchtigkeit
    00:00 +10°C° 0 mm 2 m/S 670 mmHg 59%
    01:00 +11°C° 0 mm 1 m/S 669 mmHg 61%
    02:00 +10°C° 0 mm 1 m/S 669 mmHg 62%
    03:00 +10°C° 0 mm 1 m/S 668 mmHg 64%
    04:00 +10°C° 0 mm 1 m/S 669 mmHg 64%
    05:00 +10°C° 0 mm 1 m/S 669 mmHg 65%
    06:00 +10°C° 0 mm 1 m/S 669 mmHg 65%
    07:00 +12°C° 0 mm 1 m/S 669 mmHg 61%
    08:00 +13°C° 0 mm 1 m/S 670 mmHg 56%
    09:00 +14°C° 0 mm 2 m/S 670 mmHg 52%
    10:00 +14°C° 0 mm 3 m/S 671 mmHg 51%
    11:00 +14°C° 0 mm 4 m/S 671 mmHg 50%
    12:00 +15°C° 0 mm 5 m/S 671 mmHg 50%
    13:00 +14°C° 0.2 mm 4 m/S 671 mmHg 54%
    14:00 +13°C° 0.2 mm 4 m/S 670 mmHg 59%
    15:00 +13°C° 0.2 mm 3 m/S 670 mmHg 63%
    16:00 +12°C° 0.3 mm 3 m/S 670 mmHg 69%
    17:00 +11°C° 0.3 mm 3 m/S 670 mmHg 74%
    18:00 +10°C° 0.3 mm 3 m/S 670 mmHg 80%
    19:00 +9°C° 0.1 mm 3 m/S 670 mmHg 81%
    20:00 +8°C° 0.1 mm 3 m/S 670 mmHg 83%
    21:00 +8°C° 0.1 mm 3 m/S 671 mmHg 84%
    22:00 +7°C° 0.3 mm 3 m/S 670 mmHg 85%
    23:00 +5°C° 0.3 mm 3 m/S 670 mmHg 85%

    27 März, Mittwoch

    Zeit Temperatur Niederschläge Wind Luftdruck Luftfeuchtigkeit
    00:00 +5°C° 0.3 mm 3 m/S 670 mmHg 86%
    01:00 +5°C° 0.8 mm 3 m/S 670 mmHg 85%
    02:00 +4°C° 0.8 mm 3 m/S 670 mmHg 84%
    03:00 +4°C° 0.8 mm 3 m/S 670 mmHg 83%
    04:00 +4°C° 0.1 mm 3 m/S 670 mmHg 81%
    05:00 +4°C° 0.1 mm 3 m/S 670 mmHg 79%
    06:00 +4°C° 0.1 mm 3 m/S 670 mmHg 77%
    07:00 +5°C° 0.2 mm 3 m/S 670 mmHg 74%
    08:00 +5°C° 0.2 mm 3 m/S 671 mmHg 71%
    09:00 +5°C° 0.2 mm 3 m/S 671 mmHg 68%
    10:00 +7°C° 0.3 mm 3 m/S 671 mmHg 66%
    11:00 +8°C° 0.3 mm 3 m/S 671 mmHg 65%
    12:00 +8°C° 0.3 mm 3 m/S 671 mmHg 64%
    13:00 +8°C° 1.2 mm 3 m/S 670 mmHg 68%
    14:00 +7°C° 1.2 mm 3 m/S 670 mmHg 72%
    15:00 +6°C° 1.2 mm 4 m/S 669 mmHg 76%
    16:00 +5°C° 0.8 mm 3 m/S 669 mmHg 80%
    17:00 +5°C° 0.8 mm 3 m/S 669 mmHg 83%
    18:00 +4°C° 0.8 mm 3 m/S 670 mmHg 87%
    19:00 +4°C° 0.5 mm 3 m/S 670 mmHg 87%
    20:00 +4°C° 0.5 mm 4 m/S 670 mmHg 88%
    21:00 +4°C° 0.5 mm 4 m/S 670 mmHg 89%
    22:00 +4°C° 0 mm 4 m/S 670 mmHg 90%
    23:00 +4°C° 0 mm 4 m/S 670 mmHg 91%

    28 März, Donnerstag

    Zeit Temperatur Niederschläge Wind Luftdruck Luftfeuchtigkeit
    00:00 +3°C° 0 mm 3 m/S 670 mmHg 92%
    01:00 +4°C° 0.1 mm 3 m/S 670 mmHg 92%
    02:00 +4°C° 0.2 mm 3 m/S 670 mmHg 92%
    03:00 +4°C° 0.2 mm 3 m/S 670 mmHg 92%
    04:00 +4°C° 0.2 mm 3 m/S 670 mmHg 91%
    05:00 +4°C° 0.2 mm 3 m/S 670 mmHg 91%
    06:00 +3°C° 0.2 mm 3 m/S 670 mmHg 91%
    07:00 +4°C° 0 mm 3 m/S 671 mmHg 86%
    08:00 +5°C° 0 mm 4 m/S 671 mmHg 82%
    09:00 +5°C° 0 mm 4 m/S 672 mmHg 77%
    10:00 +6°C° 0 mm 4 m/S 672 mmHg 71%
    11:00 +7°C° 0 mm 4 m/S 672 mmHg 65%
    12:00 +8°C° 0 mm 5 m/S 672 mmHg 59%
    13:00 +9°C° 0 mm 5 m/S 672 mmHg 57%
    14:00 +9°C° 0 mm 5 m/S 672 mmHg 55%
    15:00 +9°C° 0 mm 5 m/S 672 mmHg 53%
    16:00 +10°C° 0 mm 4 m/S 672 mmHg 60%
    17:00 +8°C° 0 mm 4 m/S 672 mmHg 67%
    18:00 +7°C° 0 mm 4 m/S 672 mmHg 73%
    19:00 +7°C° 0 mm 3 m/S 672 mmHg 78%
    20:00 +7°C° 0 mm 3 m/S 673 mmHg 83%
    21:00 +5°C° 0 mm 3 m/S 673 mmHg 88%
    22:00 +5°C° 0 mm 2 m/S 673 mmHg 89%
    23:00 +5°C° 0 mm 2 m/S 673 mmHg 91%

    29 März, Freitag

    Zeit Temperatur Niederschläge Wind Luftdruck Luftfeuchtigkeit
    00:00 +6°C° 0 mm 1 m/S 673 mmHg 92%
    01:00 +5°C° 0 mm 1 m/S 673 mmHg 91%
    02:00 +5°C° 0 mm 1 m/S 673 mmHg 90%
    03:00 +5°C° 0 mm 1 m/S 672 mmHg 89%
    04:00 +5°C° 0 mm 1 m/S 673 mmHg 88%
    05:00 +5°C° 0 mm 1 m/S 673 mmHg 86%
    06:00 +4°C° 0 mm 0 m/S 673 mmHg 84%
    07:00 +7°C° 0 mm 1 m/S 674 mmHg 75%
    08:00 +9°C° 0 mm 1 m/S 674 mmHg 66%
    09:00 +10°C° 0 mm 1 m/S 675 mmHg 57%
    10:00 +10°C° 0 mm 2 m/S 675 mmHg 56%
    11:00 +12°C° 0 mm 2 m/S 675 mmHg 54%
    12:00 +11°C° 0 mm 3 m/S 674 mmHg 52%
    13:00 +12°C° 0 mm 3 m/S 674 mmHg 51%
    14:00 +12°C° 0 mm 3 m/S 674 mmHg 51%
    15:00 +12°C° 0 mm 3 m/S 673 mmHg 50%
    16:00 +11°C° 0 mm 3 m/S 673 mmHg 52%
    17:00 +12°C° 0 mm 2 m/S 673 mmHg 54%
    18:00 +10°C° 0 mm 2 m/S 673 mmHg 57%
    19:00 +9°C° 0 mm 2 m/S 673 mmHg 61%
    20:00 +9°C° 0 mm 2 m/S 673 mmHg 65%
    21:00 +9°C° 0 mm 1 m/S 673 mmHg 69%
    22:00 +9°C° 0 mm 1 m/S 673 mmHg 69%
    23:00 +8°C° 0 mm 2 m/S 673 mmHg 69%
    Mehr zeigen